When you browse on this site, cookies collect data to enhance your experience and personalize the content and advertising you see.
Visit our Privacy Policy to learn more. By continuing to use the site, you agree to this use of cookies and data.
  • In France
  • List of Countries
  • For 7 days
  • Water Temperature
  • Weather Map
  • Weather Widgets
  • user-avatar
    Login

    Hourly Weather Billericay

    Today, 22 August, Thursday

    Time Temperature Precipitation Wind Pressure Humidity
    00:00 +14°C° 0 mm 3 mps 763 mmHg 74%
    01:00 +14°C° 0 mm 3 mps 763 mmHg 75%
    02:00 +13°C° 0 mm 3 mps 762 mmHg 76%
    03:00 +13°C° 0 mm 3 mps 762 mmHg 77%
    04:00 +13°C° 0 mm 3 mps 762 mmHg 78%
    05:00 +13°C° 0 mm 3 mps 762 mmHg 78%
    06:00 +13°C° 0 mm 3 mps 763 mmHg 79%
    07:00 +16°C° 0 mm 3 mps 763 mmHg 72%
    08:00 +17°C° 0 mm 4 mps 763 mmHg 64%
    09:00 +19°C° 0 mm 4 mps 763 mmHg 56%
    10:00 +20°C° 0 mm 4 mps 763 mmHg 53%
    11:00 +22°C° 0 mm 4 mps 763 mmHg 50%
    12:00 +23°C° 0 mm 4 mps 763 mmHg 47%
    13:00 +23°C° 0 mm 4 mps 763 mmHg 48%
    14:00 +25°C° 0 mm 4 mps 763 mmHg 50%
    15:00 +25°C° 0 mm 4 mps 763 mmHg 51%
    16:00 +23°C° 0 mm 4 mps 763 mmHg 54%
    17:00 +23°C° 0 mm 4 mps 762 mmHg 58%
    18:00 +22°C° 0 mm 3 mps 762 mmHg 62%
    19:00 +21°C° 0 mm 3 mps 763 mmHg 67%
    20:00 +20°C° 0 mm 3 mps 763 mmHg 72%
    21:00 +19°C° 0 mm 3 mps 763 mmHg 77%
    22:00 +18°C° 0 mm 2 mps 763 mmHg 79%
    23:00 +18°C° 0 mm 2 mps 763 mmHg 81%

    Tomorrow, 23 August, Friday

    Time Temperature Precipitation Wind Pressure Humidity
    00:00 +17°C° 0 mm 2 mps 763 mmHg 83%
    01:00 +18°C° 0 mm 1 mps 763 mmHg 85%
    02:00 +18°C° 0 mm 1 mps 763 mmHg 86%
    03:00 +18°C° 0 mm 1 mps 763 mmHg 87%
    04:00 +18°C° 0 mm 1 mps 763 mmHg 87%
    05:00 +18°C° 0 mm 1 mps 763 mmHg 87%
    06:00 +18°C° 0 mm 1 mps 763 mmHg 86%
    07:00 +20°C° 0 mm 1 mps 763 mmHg 80%
    08:00 +21°C° 0 mm 1 mps 763 mmHg 73%
    09:00 +23°C° 0 mm 1 mps 764 mmHg 67%
    10:00 +23°C° 0 mm 1 mps 763 mmHg 63%
    11:00 +24°C° 0 mm 2 mps 763 mmHg 58%
    12:00 +25°C° 0 mm 2 mps 763 mmHg 54%
    13:00 +25°C° 0 mm 3 mps 762 mmHg 54%
    14:00 +25°C° 0 mm 3 mps 762 mmHg 54%
    15:00 +25°C° 0 mm 4 mps 762 mmHg 54%
    16:00 +23°C° 0 mm 4 mps 762 mmHg 56%
    17:00 +22°C° 0 mm 3 mps 761 mmHg 57%
    18:00 +22°C° 0 mm 3 mps 761 mmHg 58%
    19:00 +20°C° 0 mm 3 mps 761 mmHg 60%
    20:00 +19°C° 0 mm 3 mps 761 mmHg 62%
    21:00 +18°C° 0 mm 3 mps 761 mmHg 65%
    22:00 +18°C° 0 mm 2 mps 761 mmHg 65%
    23:00 +17°C° 0 mm 2 mps 761 mmHg 65%

    Day after tomorrow, 24 August, Saturday

    Time Temperature Precipitation Wind Pressure Humidity
    00:00 +17°C° 0 mm 2 mps 761 mmHg 65%
    01:00 +17°C° 0 mm 2 mps 760 mmHg 69%
    02:00 +17°C° 0 mm 2 mps 760 mmHg 73%
    03:00 +17°C° 0 mm 2 mps 760 mmHg 76%
    04:00 +17°C° 0 mm 2 mps 760 mmHg 79%
    05:00 +17°C° 0 mm 2 mps 760 mmHg 81%
    06:00 +17°C° 0 mm 2 mps 759 mmHg 83%
    07:00 +19°C° 0 mm 2 mps 759 mmHg 76%
    08:00 +21°C° 0 mm 2 mps 759 mmHg 68%
    09:00 +24°C° 0 mm 3 mps 760 mmHg 60%
    10:00 +25°C° 0 mm 3 mps 759 mmHg 56%
    11:00 +26°C° 0 mm 3 mps 759 mmHg 52%
    12:00 +27°C° 0 mm 4 mps 759 mmHg 48%
    13:00 +27°C° 0 mm 4 mps 758 mmHg 48%
    14:00 +27°C° 0 mm 4 mps 758 mmHg 47%
    15:00 +27°C° 0 mm 4 mps 758 mmHg 47%
    16:00 +26°C° 0 mm 4 mps 757 mmHg 51%
    17:00 +25°C° 0 mm 3 mps 757 mmHg 55%
    18:00 +24°C° 0 mm 3 mps 757 mmHg 59%
    19:00 +22°C° 0 mm 3 mps 757 mmHg 62%
    20:00 +21°C° 0 mm 3 mps 757 mmHg 66%
    21:00 +19°C° 0 mm 3 mps 757 mmHg 70%
    22:00 +19°C° 0 mm 2 mps 757 mmHg 70%
    23:00 +19°C° 0 mm 2 mps 757 mmHg 71%

    25 August, Sunday

    Time Temperature Precipitation Wind Pressure Humidity
    00:00 +19°C° 0 mm 2 mps 756 mmHg 71%
    01:00 +19°C° 0 mm 2 mps 756 mmHg 72%
    02:00 +20°C° 0 mm 1 mps 756 mmHg 73%
    03:00 +19°C° 0 mm 1 mps 756 mmHg 74%
    04:00 +20°C° 0 mm 1 mps 756 mmHg 72%
    05:00 +20°C° 0 mm 1 mps 756 mmHg 70%
    06:00 +20°C° 0 mm 1 mps 756 mmHg 68%
    07:00 +21°C° 0 mm 2 mps 756 mmHg 61%
    08:00 +24°C° 0 mm 2 mps 756 mmHg 55%
    09:00 +27°C° 0 mm 3 mps 757 mmHg 49%
    10:00 +28°C° 0 mm 3 mps 757 mmHg 45%
    11:00 +29°C° 0 mm 4 mps 757 mmHg 42%
    12:00 +30°C° 0 mm 4 mps 756 mmHg 38%
    13:00 +30°C° 0 mm 4 mps 756 mmHg 38%
    14:00 +30°C° 0 mm 4 mps 756 mmHg 39%
    15:00 +30°C° 0 mm 4 mps 756 mmHg 39%
    16:00 +29°C° 0 mm 4 mps 757 mmHg 44%
    17:00 +27°C° 0 mm 3 mps 757 mmHg 49%
    18:00 +26°C° 0 mm 3 mps 757 mmHg 54%
    19:00 +25°C° 0 mm 3 mps 757 mmHg 58%
    20:00 +22°C° 0 mm 3 mps 757 mmHg 63%
    21:00 +21°C° 0 mm 3 mps 758 mmHg 67%
    22:00 +21°C° 0 mm 2 mps 757 mmHg 69%
    23:00 +20°C° 0 mm 2 mps 757 mmHg 71%

    26 August, Monday

    Time Temperature Precipitation Wind Pressure Humidity
    00:00 +20°C° 0 mm 2 mps 757 mmHg 73%
    01:00 +21°C° 0 mm 1 mps 757 mmHg 75%
    02:00 +21°C° 0 mm 1 mps 757 mmHg 76%
    03:00 +21°C° 0 mm 1 mps 757 mmHg 78%
    04:00 +21°C° 0 mm 1 mps 757 mmHg 78%
    05:00 +21°C° 0 mm 1 mps 757 mmHg 79%
    06:00 +21°C° 0 mm 1 mps 757 mmHg 79%
    07:00 +23°C° 0 mm 2 mps 757 mmHg 73%
    08:00 +25°C° 0 mm 2 mps 757 mmHg 66%
    09:00 +26°C° 0 mm 3 mps 757 mmHg 60%
    10:00 +27°C° 0 mm 3 mps 757 mmHg 56%
    11:00 +28°C° 0 mm 4 mps 757 mmHg 52%
    12:00 +29°C° 0 mm 4 mps 757 mmHg 48%
    13:00 +29°C° 0 mm 4 mps 756 mmHg 48%
    14:00 +29°C° 0 mm 4 mps 756 mmHg 47%
    15:00 +29°C° 0 mm 5 mps 755 mmHg 47%
    16:00 +27°C° 0 mm 4 mps 755 mmHg 50%
    17:00 +26°C° 0 mm 4 mps 755 mmHg 54%
    18:00 +25°C° 0 mm 4 mps 755 mmHg 57%
    19:00 +23°C° 0 mm 4 mps 755 mmHg 62%
    20:00 +21°C° 0 mm 4 mps 755 mmHg 66%
    21:00 +20°C° 0 mm 3 mps 755 mmHg 71%
    22:00 +20°C° 0 mm 3 mps 755 mmHg 75%
    23:00 +19°C° 0 mm 3 mps 755 mmHg 79%

    27 August, Tuesday

    Time Temperature Precipitation Wind Pressure Humidity
    00:00 +19°C° 0 mm 3 mps 754 mmHg 82%
    01:00 +19°C° 0 mm 3 mps 754 mmHg 84%
    02:00 +19°C° 0 mm 3 mps 754 mmHg 86%
    03:00 +19°C° 0 mm 2 mps 753 mmHg 88%
    04:00 +19°C° 0 mm 2 mps 753 mmHg 86%
    05:00 +20°C° 0 mm 2 mps 753 mmHg 84%
    06:00 +20°C° 0 mm 2 mps 753 mmHg 83%
    07:00 +23°C° 0 mm 2 mps 753 mmHg 77%
    08:00 +25°C° 0 mm 3 mps 753 mmHg 70%
    09:00 +26°C° 0 mm 3 mps 753 mmHg 64%
    10:00 +27°C° 0.1 mm 3 mps 753 mmHg 60%
    11:00 +28°C° 0.1 mm 3 mps 753 mmHg 56%
    12:00 +29°C° 0.1 mm 3 mps 753 mmHg 53%
    13:00 +29°C° 0 mm 3 mps 752 mmHg 51%
    14:00 +29°C° 0 mm 4 mps 752 mmHg 50%
    15:00 +29°C° 0 mm 4 mps 752 mmHg 49%
    16:00 +27°C° 0 mm 4 mps 752 mmHg 56%
    17:00 +25°C° 0 mm 4 mps 752 mmHg 63%
    18:00 +23°C° 0 mm 5 mps 752 mmHg 70%
    19:00 +22°C° 0 mm 4 mps 752 mmHg 75%
    20:00 +20°C° 0 mm 4 mps 752 mmHg 79%
    21:00 +19°C° 0 mm 4 mps 753 mmHg 84%
    22:00 +19°C° 0 mm 3 mps 753 mmHg 86%
    23:00 +18°C° 0 mm 3 mps 753 mmHg 88%
    Show more